THOR ABLESTAR DEB, 1521

Orbit data source: Space-Track

THOR ABLESTAR DEB, 1521 is space debris in LEO originally from a launch on Fri, 13 Aug 1965 UTC launched from the Air Force Western Test Range (AFWTR). Debris objects in space refer to the collection of defunct objects orbiting the Earth. Examples of debris include non-operational satellites, rocket bodies, and fragments generated from explosions, collisions, or faulty payload assembly.

Loading next visibility...
Identifier
1521, 1965-065K
Orbit
LEO
Country
Flag of USUS
Related business
Manufacturer
NRL
Mission
Spacecraft
Bus & Motor
Unknown
Mass
Unknown
Launch date (UTC)
1965-08-13 (60 years ago)
Launch vehicle
Unknown
Launch site
Air Force Western Test Range (AFWTR)
Object type
Payload
Rocket body
Debris
Shape & HBR
Unknown
Radar Cross Section
Small (<0.1 m²)

Expand to show TLE details & history
Last TLE update: 6 hours ago

TLE from 6 hours ago
0 THOR ABLESTAR DEB
1 01521U 65065K   25242.88466795  .00000057  00000-0  97173-4 0  9992
2 01521  90.0036 209.8497 0069460 359.5387  60.8722 13.33266390920724
Epoch: 2025-08-30T21:13Z
TLE epoch observation values (Epoch: 2025-08-30T21:13:55.31Z)
Latitude
61.19693°
Longitude
-87.94983°
Altitude
1,119.874 km
Speed
7.31 km/s
True Right ascension
13h 59m 22s
True Declination
61° 03' 31"
Sunlit
Object was in daylight at epoch
Visualization orbit readout
Latitude
Unknown
Longitude
Unknown
Altitude
Unknown
Speed
Unknown
Apparent Right ascension
Unknown
Apparent Declination
Unknown
Sunlit
N/A
Visualization observer readout
Local Sidereal Time
18:55:16
Azimuth
Unknown
Elevation
Unknown
Doppler factor
Unknown
Orbital elements
Apogee altitude
1,183.704 km
Perigee altitude
1,079.38 km
Semi-major axis
7,509.679 km
Eccentricity
0.00695
Inclination
90.0036°
RAAN
209.8497°
Arg. of periapsis
359.5387°
True anomaly
61.57043°
Mean anomaly
60.8722°
Eccentric anomaly
61.22102°
Mean motion
3.33512 °/min
Orbital period
107.94 mins
BSTAR
0.000097173
Loading maneuver chart data...
Computing Atmospheric mass density...
Loading historical data...
Loading historical data...
Loading historical data...
Loading historical data...
Loading historical data...
Loading historical data...
Loading historical data...

Documentation

Showing up to 5 results
|